Regional Weather Roundup
Issued by NWS Burlington, VT

Home | Current Version | Previous Version | Text Only | Print | Product List | Glossary On
Versions: 1 2 3 4 5 6 7 8 9 10 11 12 13 14 15 16 17 18 19 20 21 22 23 24 25 26 27 28 29 30 31 32 33 34 35 36 37 38 39 40 41 42 43 44 45 46 47 48 49 50
000
ASUS41 KBTV 270610
RWRBTV
VERMONT REGIONAL WEATHER ROUNDUP
NATIONAL WEATHER SERVICE BURLINGTON VT
200 AM EDT TUE JUN 27 2017

NOTE: "FAIR" INDICATES FEW OR NO CLOUDS BELOW 12,000 FEET WITH NO
SIGNIFICANT WEATHER AND/OR OBSTRUCTIONS TO VISIBILITY.

* THESE REPORTS ARE NOT UNDER NWS QUALITY CONTROL AND/OR DO NOT
  REPORT WEATHER SUCH AS PRECIPITATION AND FOG.

VTZ001>019-270700-
_____VERMONT_____


CITY           SKY/WX    TMP DP  RH WIND       PRES   REMARKS
BURLINGTON     CLOUDY    57  56  96 SE6       29.96F
6HR MIN TEMP:  57; 6HR MAX TEMP:  68; 6HR PCP:  0.10;

MONTPELIER     LGT RAIN  54  54 100 CALM      30.01S
6HR MIN TEMP:  52; 6HR MAX TEMP:  61; 6HR PCP: TRACE;

MORRISVILLE    LGT RAIN  52  50  93 S3        29.98S
6HR MIN TEMP:  50; 6HR MAX TEMP:  63; 6HR PCP: TRACE;

ST. JOHNSBURY*   N/A     53  53 100 MISG      29.97S
6HR MIN TEMP:  53; 6HR MAX TEMP:  66;

LYNDONVILLE*   FAIR      52  50  94 CALM      30.00S
6HR MIN TEMP:  52; 6HR MAX TEMP:  64;

MIDDLEBURY*    FAIR      57  54  89 S6        29.96F
6HR MIN TEMP:  54; 6HR MAX TEMP:  62; 6HR PCP:  0.02;

RUTLAND*       CLOUDY    54  53  97 SE5       30.00F
6HR MIN TEMP:  54; 6HR MAX TEMP:  58; 6HR PCP: TRACE;

SPRINGFIELD    LGT RAIN  55  52  89 CALM      30.00F
6HR MIN TEMP:  53; 6HR MAX TEMP:  62; 6HR PCP:  0.01;

HIGHGATE*      LGT RAIN  57  56  94 SE3       29.94F
6HR MIN TEMP:  57; 6HR MAX TEMP:  64;

NEWPORT*       MOCLDY    51  50  94 S6        29.98R
6HR MIN TEMP:  50; 6HR MAX TEMP:  62;

BENNINGTON     CLOUDY    56  53  90 VRB3      30.01F
6HR MIN TEMP:  56; 6HR MAX TEMP:  59; 6HR PCP:  0.13;

SUTTON*          N/A     52 N/A N/A MISG        N/A

_____LAKE CHAMPLAIN_____


CITY           SKY/WX    TMP DP  RH WIND       PRES   REMARKS
BURTON ISLAND*   N/A     61  55  82 S8          N/A
COLCHESTER RF*   N/A     61  55  82 SE10        N/A

$$

NYZ007-026>031-035-052-083-087-270700-
_____NORTHERN NEW YORK_____


CITY           SKY/WX    TMP DP  RH WIND       PRES   REMARKS
PLATTSBURGH    CLOUDY    55  53  93 S6        29.94F
6HR MIN TEMP:  55; 6HR MAX TEMP:  67; 6HR PCP:  0.13;

SARANAC LAKE   MOCLDY    43  43 100 CALM      29.94F
6HR MIN TEMP:  43; 6HR MAX TEMP:  58; 6HR PCP:  0.02;

MASSENA        CLEAR     52  52 100 S5        29.92F
6HR MIN TEMP:  52; 6HR MAX TEMP:  63; 6HR PCP:  0.16;

OGDENSBURG*    FAIR      52  51  97 CALM      29.92F
6HR MIN TEMP:  52; 6HR MAX TEMP:  61;

POTSDAM*       CLEAR     52  52 100 SW5       29.92F
WATERTOWN      CLEAR     55  54  96 S5        29.93S
6HR MIN TEMP:  52; 6HR MAX TEMP:  62; 6HR PCP:  0.28;

FT DRUM        CLEAR     53  51  91 S7        29.93S
6HR MIN TEMP:  53; 6HR MAX TEMP:  64; 6HR PCP:  0.11;

ALBANY         LGT RAIN  58  55  90 CALM      30.00F
6HR MIN TEMP:  57; 6HR MAX TEMP:  63; 6HR PCP:  0.18;

GLENS FALLS    LGT RAIN  57  55  93 S7        29.99S
6HR MIN TEMP:  54; 6HR MAX TEMP:  62; 6HR PCP:  0.05;


$$
NHZ002-005-011-270700-
_____NEW HAMPSHIRE_____


CITY           SKY/WX    TMP DP  RH WIND       PRES   REMARKS
LEBANON        CLOUDY    56  54  93 NE3       29.98F
6HR MIN TEMP:  53; 6HR MAX TEMP:  61;

KEENE          MOCLDY    57  56  96 CALM      30.01S
6HR MIN TEMP:  56; 6HR MAX TEMP:  67; 6HR PCP:  0.08;

MT WASHINGTON  PTCLDY    37  36  93 W26         N/A  WCI  26
6HR MIN TEMP:  37; 6HR MAX TEMP:  41; 6HR PCP:  0.07;

PLYMOUTH       FAIR      51  50  96 CALM      29.99F
6HR MIN TEMP:  51; 6HR MAX TEMP:  64;

WHITEFIELD     PTCLDY    47  44  90 CALM      29.99R
6HR MIN TEMP:  47; 6HR MAX TEMP:  64; 6HR PCP:  0.01;


$$

_____REGIONAL QUEBEC LOCATIONS_____


CITY           SKY/WX    TMP DP  RH WIND       PRES   REMARKS
MONTREAL       MOCLDY    59  54  82 SW8       29.90F
QUEBEC CITY    CLEAR     50  43  76 NE7       29.94S
SHERBROOKE     CLOUDY    50  48  93 SE5       29.96R

_____REGIONAL ONTARIO LOCATIONS_____


CITY           SKY/WX    TMP DP  RH WIND       PRES   REMARKS

______KEY______
VSB  - VISIBILITY IN MILES
WCI  - WIND CHILL INDEX
HX   - HEAT INDEX
$$
NNNN




USA.gov is the U.S. government's official web portal to all federal, state and local government web resources and services.